#timestamp,LO_Frequency,Hit,StdDev 
1634878815.6,286046997.2,N
1634878835.4,286046997.3,N
1634878855.3,286046997.2,N
1634878875.1,286046997.6,N
1634878895.9,286046997.0,N
1634878915.7,286046999.6,N
1634878935.5,286047001.2,N
1634878955.4,286046999.9,N
1634878975.2,286046998.7,N
1634878995.0,286047002.6,N
1634878995.9,286047002.6,N
1634879015.8,286047000.8,N
1634879035.6,286047002.5,N
1634879055.5,286047002.7,N
1634879075.3,286047000.7,N
1634879095.1,286046998.5,N
1634879115.9,286046998.9,N
1634879135.7,286046999.1,N
1634879155.5,286046997.0,N
1634879175.4,286046995.6,N
1634879195.2,286046995.6,N
1634879215.1,286046995.3,N
1634879216.0,286046995.3,N
1634879235.8,286046993.7,N
1634879255.6,286046996.7,N
1634879275.5,286046998.8,N
1634879295.3,286046998.2,N
1634879315.1,286046998.7,N
1634879335.9,286047000.6,N
1634879355.7,286046998.2,N
1634879375.6,286046998.3,N
1634879395.4,286046997.2,N
1634879415.2,286046996.6,N
1634879435.1,286046996.8,N
1634879436.0,286046996.8,N
1634879455.8,286047002.4,N
1634879475.7,286047000.1,N
1634879495.5,286047002.3,N
1634879515.3,286047001.9,N
1634879535.2,286047002.0,N
1634879555.9,286047000.3,N
1634879575.7,286046999.9,N
1634879595.6,286046999.8,N
1634879615.4,286047002.2,N
1634879635.3,286046999.8,N
1634879655.1,286046998.2,N
1634879656.0,286046998.2,N
1634879675.8,286047002.4,N
1634879695.7,286047001.8,N
1634879715.5,286047001.3,N
1634879735.3,286047002.0,N
1634879755.2,286047003.9,N
1634879775.0,286047001.8,N
1634879775.9,286047001.8,N
1634879795.8,286047000.0,N
1634879815.6,286046999.7,N
1634879835.4,286047002.2,N
1634879855.3,286047004.1,N
1634879875.1,286047002.0,N
1634879895.8,286047001.8,N
1634879915.7,286047001.8,N
1634879935.5,286046999.8,N
1634879955.4,286047002.1,N
1634879975.2,286047000.4,N
1634879995.0,286047000.0,N
1634879995.9,286047000.0,N
1634880015.8,286046998.3,N
1634880035.6,286046999.4,N
1634880055.4,286046999.3,N
1634880075.3,286046998.5,N
1634880095.1,286046998.5,N
1634880115.9,286046998.1,N
1634880135.7,286047002.7,N
1634880155.5,286047002.8,N
1634880175.4,286047000.0,N
1634880195.2,286047000.2,N
1634880215.0,286047000.2,N
1634880216.0,286047000.2,N
1634880235.8,286046999.7,N
1634880255.6,286047004.3,N
1634880275.5,286047004.3,N
1634880295.3,286047005.6,Y
1634880315.1,286047001.4,P
1634880335.9,286047004.4,P
1634880355.7,286047003.7,N
1634880375.6,286047004.4,N
1634880395.4,286047003.6,N
1634880415.2,286047003.8,N
1634880435.1,286047001.8,N
1634880436.0,286047001.8,N
1634880455.8,286047000.0,N
1634880475.6,286047002.2,N
1634880495.5,286046999.9,N
1634880515.3,286046999.7,N
1634880535.2,286046999.1,N
1634880555.9,286046998.6,N
1634880575.7,286047000.1,N
1634880595.6,286046999.9,N
1634880615.4,286047002.7,N
1634880635.2,286047002.2,N
1634880655.1,286047003.6,N
1634880656.0,286047003.6,N
1634880675.8,286047003.6,N
1634880695.7,286047004.3,N
1634880715.5,286047004.2,N
1634880735.3,286047003.9,N
1634880755.2,286047003.2,N
1634880775.0,286047003.9,N
1634880775.9,286047003.9,N
1634880795.8,286047011.9,Y
1634880815.6,286047000.9,P
1634880835.4,286046999.7,N
1634880855.3,286047002.8,N
1634880875.1,286046999.9,N
1634880895.8,286047000.0,N
1634880915.7,286047001.1,N
1634880935.5,286047000.9,N
1634880955.4,286046999.8,N
1634880975.2,286047000.2,N
1634880995.0,286047000.1,N
1634880995.9,286047000.1,N
1634881015.8,286047002.4,N
1634881035.6,286047001.5,N
1634881055.4,286047002.1,N
1634881075.3,286046999.9,N
1634881095.1,286046999.9,N
1634881115.9,286047002.6,N
1634881135.7,286047000.3,N
1634881155.5,286047002.2,N
1634881175.4,286046999.8,N
1634881195.2,286047000.2,N
1634881215.1,286047000.0,N
1634881216.0,286047000.0,N
1634881235.8,286047001.2,N
1634881255.6,286046998.1,N
1634881275.5,286047001.0,N
1634881295.3,286047002.4,N
1634881315.1,286047000.1,N
1634881335.9,286047002.8,N
1634881355.7,286047002.6,N
1634881375.6,286047002.4,N
1634881395.4,286047001.3,N
1634881415.2,286047003.6,Y
1634881435.1,286047002.6,P
1634881436.0,286047002.6,P
1634881455.8,286047002.1,N
1634881475.7,286047001.5,N
1634881495.5,286047002.5,Y
1634881515.3,286046999.2,P
1634881535.2,286046999.4,N
1634881555.0,286046999.5,N
1634881555.9,286046999.5,N
1634881575.8,286046997.0,N
1634881595.6,286046999.5,N
1634881615.4,286047000.7,N
1634881635.3,286047000.4,N
1634881655.1,286047001.0,N
1634881675.9,286047001.9,N
1634881695.7,286047001.5,N
1634881715.5,286047004.1,Y
1634881735.4,286047002.6,P
1634881755.2,286047002.3,N
1634881775.0,286047002.1,N
1634881775.9,286047002.1,N
1634881795.8,286047000.4,N
1634881815.6,286046999.0,N
1634881835.5,286047000.3,N
1634881855.3,286047002.5,N
1634881875.1,286047000.7,N
1634881895.9,286046998.7,N
1634881915.7,286047000.9,N
1634881935.6,286047000.2,N
1634881955.4,286047002.0,N
1634881975.2,286047001.7,N
1634881995.1,286047004.4,Y
1634881996.0,286047004.4,P
1634882015.8,286047000.3,N
1634882035.7,286046999.7,N
1634882055.5,286047002.8,N
1634882075.3,286047002.2,N
1634882095.2,286047004.0,N
1634882115.0,286047001.4,N
1634882115.9,286047001.4,N
1634882135.7,286047001.4,N
1634882155.6,286047002.1,N
1634882175.4,286047000.4,N
1634882195.3,286046999.8,N
1634882215.1,286047001.9,N
1634882216.0,286047001.9,N
1634882235.8,286046999.9,N
1634882255.7,286047002.3,N
1634882275.5,286047002.0,N
1634882295.4,286047002.7,N
1634882315.2,286046999.7,N
1634882335.0,286047000.0,N
1634882335.9,286047000.0,N
1634882355.8,286047002.2,N
1634882375.6,286047002.7,N
1634882395.4,286047002.0,N
